GW1942 Weather Reports


Display with metric or nautical units.
time (UTC)temp
F
wind
direction
speed
MPH
gust
MPH
rain 1hr
in
rain 24hr
in
rain mn
in
humidity
%
barometer
mb
20260905051534 50 161 0.0 0.0 0.00 0.15 0.15 81 1016.7
20260905050029 50 162 0.0 1.0 0.00 0.15 0.15 85 1016.8
20260905044532 51 162 0.0 1.0 0.00 0.15 0.15 83 1016.7
20260905043027 51 162 0.0 1.0 0.00 0.15 0.15 81 1016.5
20260905041522 53 161 0.0 2.0 0.00 0.15 0.15 75 1016.5
20260905040021 54 162 2.0 3.0 0.00 0.15 0.15 72 1016.3
20260905034521 54 161 0.0 0.0 0.00 0.15 0.15 77 1016.5
20260905033029 56 162 0.0 3.0 0.00 0.15 0.15 68 1016.3
20260905031517 55 162 0.0 2.0 0.00 0.15 0.15 73 1016.1
20260905030031 56 162 0.0 1.0 0.00 0.15 0.15 73 1016.0
20260905024518 57 162 0.0 2.0 0.00 0.15 0.15 69 1015.8
20260905023014 57 161 0.0 0.0 0.00 0.15 0.15 71 1015.6
20260905021511 59 162 0.0 1.0 0.00 0.15 0.15 63 1015.4
20260905020011 60 162 0.0 1.0 0.00 0.15 0.15 64 1015.4
20260905014510 62 162 0.0 1.0 0.00 0.15 0.15 57 1015.3
20260905013012 62 162 0.0 3.0 0.00 0.15 0.15 55 1015.2
20260905011508 65 162 0.0 1.0 0.00 0.15 0.15 50 1014.9
20260905010008 64 162 0.0 2.0 0.00 0.15 0.15 52 1014.9
20260905004506 62 162 0.0 2.0 0.00 0.15 0.15 54 1014.9
20260905003006 63 162 0.0 1.0 0.00 0.15 0.15 53 1015.1
20260905001516 63 162 0.0 4.0 0.00 0.15 0.15 52 1015.2
20260905000005 65 162 1.0 6.0 0.00 0.15 0.15 51 1014.8
20260904234505 63 161 0.0 3.0 0.00 0.15 0.15 58 1014.9
20260904233007 64 162 1.0 4.0 0.00 0.15 0.15 54 1014.8
20260904231503 63 161 0.0 5.0 0.00 0.15 0.15 53 1015.0
20260904230112 65 162 1.0 4.0 0.00 0.15 0.15 54 1014.9
20260904224601 62 162 1.0 3.0 0.00 0.15 0.15 56 1015.0
20260904223130 62 161 0.0 2.0 0.00 0.15 0.15 57 1015.1
20260904221559 62 162 1.0 2.0 0.00 0.15 0.15 59 1015.0
20260904220056 61 162 0.0 2.0 0.00 0.15 0.15 63 1015.0
20260904214602 61 161 3.0 5.0 0.00 0.15 0.15 57 1015.1
20260904213055 61 162 0.0 3.0 0.00 0.15 0.15 58 1015.1
20260904211554 63 162 1.0 2.0 0.00 0.15 0.15 57 1015.0
20260904210101 63 162 1.0 3.0 0.00 0.15 0.15 57 1014.8
20260904204552 61 162 1.0 5.0 0.00 0.15 0.15 60 1014.7
20260904203056 61 162 0.0 2.0 0.00 0.15 0.15 62 1014.5
20260904201543 60 161 1.0 2.0 0.00 0.15 0.15 67 1014.5
20260904200039 59 162 0.0 2.0 0.00 0.15 0.15 69 1014.6
20260904194537 58 161 0.0 2.0 0.00 0.15 0.15 71 1014.7
20260904193035 58 162 0.0 2.0 0.00 0.15 0.15 74 1014.5
20260904191531 56 162 0.0 2.0 0.00 0.15 0.15 77 1014.6
20260904190034 57 162 0.0 2.0 0.00 0.15 0.15 76 1014.5
20260904184528 55 161 1.0 3.0 0.00 0.15 0.15 80 1014.6
20260904183027 55 162 0.0 2.0 0.00 0.15 0.15 76 1014.5
20260904181531 55 161 0.0 2.0 0.00 0.15 0.15 78 1014.4
20260904180023 55 162 1.0 3.0 0.00 0.15 0.15 79 1014.3
20260904174519 54 161 0.0 3.0 0.00 0.15 0.15 84 1014.3
20260904173041 53 161 0.0 1.0 0.00 0.15 0.15 83 1014.3
20260904171513 52 162 0.0 1.0 0.00 0.15 0.15 85 1014.4
20260904170010 51 161 0.0 0.0 0.00 0.15 0.15 88 1014.0
20260904164505 50 162 0.0 0.0 0.00 0.15 0.15 90 1014.0
20260904163004 50 162 0.0 1.0 0.00 0.15 0.15 90 1013.9
20260904161507 50 162 0.0 2.0 0.00 0.15 0.15 90 1013.7
20260904160003 50 162 1.0 2.0 0.00 0.15 0.15 91 1013.4
20260904154559 50 162 0.0 2.0 0.00 0.15 0.15 91 1013.1
20260904153100 49 162 0.0 1.0 0.01 0.15 0.15 92 1013.1
20260904151601 49 162 0.0 1.0 0.01 0.15 0.15 93 1012.9
20260904150056 49 162 1.0 2.0 0.01 0.15 0.15 93 1012.8
20260904144609 49 162 0.0 1.0 0.01 0.15 0.15 94 1012.7
20260904143059 48 162 0.0 0.0 0.00 0.14 0.14 94 1012.7
20260904141556 48 162 0.0 0.0 0.00 0.14 0.14 95 1012.5
20260904140050 48 162 0.0 1.0 0.00 0.14 0.14 95 1012.3
20260904134547 48 162 0.0 0.0 0.00 0.14 0.14 94 1012.2
20260904133056 48 161 0.0 0.0 0.00 0.14 0.14 94 1011.9
20260904131547 48 162 0.0 1.0 0.00 0.14 0.14 94 1011.8
20260904130044 48 162 0.0 1.0 0.00 0.14 0.14 93 1011.4
20260904124542 48 162 0.0 0.0 0.00 0.14 0.14 93 1011.0
20260904123039 48 162 0.0 1.0 0.00 0.14 0.14 93 1010.9
20260904121537 48 162 0.0 3.0 0.00 0.14 0.14 93 1010.7
20260904120037 48 162 0.0 2.0 0.00 0.14 0.14 93 1010.7
20260904114535 48 162 0.0 2.0 0.00 0.15 0.14 91 1009.9
20260904113034 48 162 1.0 5.0 0.00 0.15 0.14 91 1009.7
20260904111532 48 162 2.0 4.0 0.00 0.15 0.14 92 1009.7
20260904110032 48 161 0.0 2.0 0.01 0.15 0.14 94 1010.0
20260904104530 48 162 0.0 1.0 0.04 0.15 0.14 93 1010.0
20260904103028 48 162 0.0 0.0 0.13 0.15 0.14 92 1009.8
20260904101528 49 162 0.0 3.0 0.13 0.15 0.14 91 1009.5
20260904100027 48 162 1.0 4.0 0.12 0.14 0.13 91 1009.2
20260904094525 49 162 0.0 1.0 0.09 0.11 0.10 91 1009.4
20260904093022 49 162 1.0 3.0 0.00 0.02 0.01 90 1009.7
20260904091540 48 162 0.0 2.0 0.00 0.02 0.01 91 1009.4
20260904090020 49 162 0.0 1.0 0.00 0.02 0.01 90 1008.9
20260904084519 49 162 0.0 1.0 0.00 0.02 0.01 90 1008.9
20260904083026 48 161 0.0 1.0 0.00 0.02 0.01 90 1009.0
20260904081518 48 162 0.0 1.0 0.00 0.02 0.01 90 1009.0
20260904080017 48 162 0.0 1.0 0.01 0.02 0.01 89 1008.5
20260904074515 49 162 0.0 1.0 0.01 0.04 0.01 88 1008.1
20260904073017 49 162 0.0 1.0 0.01 0.04 0.01 89 1008.3
20260904071511 50 162 1.0 4.0 0.01 0.04 0.01 84 1008.8
20260904070010 50 162 0.0 2.0 0.00 0.03 0.00 84 1008.9
20260904064509 50 162 0.0 1.0 0.00 0.04 0.00 84 1009.2
20260904063018 50 162 0.0 1.0 0.00 0.04 0.00 83 1009.3
20260904061508 49 160 0.0 2.0 0.00 0.04 0.00 84 1009.0
20260904054600 51 160 0.0 0.0 0.00 0.04 0.04 73 1008.1
20260904053107 51 161 0.0 1.0 0.00 0.04 0.04 73 1008.5